Home   Weather   Ingelheim am Rhein   Past weeks

Flag for Germany Past Weather in Ingelheim am Rhein, Rhineland-Palatinate, Germany — Yesterday and Last 2 Weeks

Now
57 °F

Sunny.


Feels Like: 57 °F
Forecast: 57 / 66 °F
Wind: No wind

Location: Wiesbaden Airport

Current Time: Sep 29, 2016 at 12:15:00 PM

Latest Report: Sep 29, 2016 at 8:58 AM


Visibility: N/A

Pressure: 30.20 "Hg

Humidity: 77%

Dew Point: 50 °F

Location of Ingelheim am RheinLocation

Past Weather in Ingelheim am Rhein — Graph

°F

Ingelheim am Rhein Temperature Yesterday

Maximum temperature yesterday: 72 °F (at 12:58 PM)
Minimum temperature yesterday: 50 °F (at 6:58 AM)
Average temperature yesterday: 59 °F

High & Low Weather Summary for the Past Weeks

 TemperatureHumidityPressure
High87 °F (Sep 14, 3:58 PM)88% (Sep 28, 5:58 AM)30.37 "Hg (Sep 28, 5:58 AM)
Low45 °F (Sep 22, 5:58 AM)24% (Sep 14, 3:58 PM)29.82 "Hg (Sep 15, 3:58 AM)
Average62 °F60%30.11 "Hg
* Reported Sep 14 8:58 AM — Sep 29 8:58 AM, Ingelheim am Rhein, Weather by CustomWeather, © 2016

Note: Actual official high and low records may vary slightly from our data, if they occured in-between our weather recording intervals... More about our weather records

Advertising

Ingelheim am Rhein Weather History for the Previous 24 Hours

Scroll right to see more
 ConditionsComfort  
Time TempWeatherWind HumidityBarometerVisibility
8:58 AM
Thu, Sep 29
57 °FSunny.No wind77%30.20 "HgN/A
7:58 AM52 °FSunny.No wind82%30.21 "HgN/A
6:58 AM52 °FClear.2 mph83%30.22 "HgN/A
5:58 AM52 °FClear.3 mph82%30.23 "HgN/A
4:58 AM52 °FClear.2 mph82%30.24 "HgN/A
3:58 AM55 °FClear.2 mph82%30.25 "HgN/A
2:58 AM54 °FClear.2 mph80%30.26 "HgN/A
1:58 AM56 °FClear.3 mph78%30.28 "HgN/A
12:58 AM55 °FClear.No wind77%30.28 "HgN/A
11:58 PM
Wed, Sep 28
58 °FClear.5 mph73%30.29 "HgN/A
10:58 PM60 °FClear.5 mph69%30.30 "HgN/A
9:58 PM59 °FClear.7 mph68%30.30 "HgN/A
8:58 PM61 °FClear.6 mph65%30.32 "HgN/A
7:58 PM63 °FClear.5 mph61%30.30 "HgN/A
6:58 PM66 °FSunny.7 mph56%30.31 "HgN/A
5:58 PM69 °FSunny.12 mph48%30.30 "HgN/A
4:58 PM72 °FSunny.16 mph44%30.30 "HgN/A
3:58 PM70 °FPartly sunny.18 mph47%30.30 "HgN/A
2:58 PM72 °FOvercast.15 mph44%30.31 "HgN/A
1:58 PM72 °FOvercast.16 mph38%30.32 "HgN/A
12:58 PM72 °FPartly sunny.10 mph33%30.34 "HgN/A
Weather by CustomWeather, © 2016

See weather overviewHow to use our weather pages